When you browse on this site, cookies collect data to enhance your experience and personalize the content and advertising you see.
Visit our Privacy Policy to learn more. By continuing to use the site, you agree to this use of cookies and data.
  • In Portugal
  • List of Countries
  • For 7 days
  • Water Temperature
  • Satellite Maps
  • Weather Map
  • Weather Widgets
  • user-avatar
    Login

    Hourly Weather Chervlennye Buruny

    Today, 20 June, Thursday

    Time Temperature Precipitation Wind Pressure Humidity
    00:00 +27°C° 0 mm 3 mps 752 mmHg 33%
    01:00 +26°C° 0 mm 2 mps 752 mmHg 35%
    02:00 +26°C° 0 mm 2 mps 752 mmHg 36%
    03:00 +25°C° 0 mm 2 mps 751 mmHg 39%
    04:00 +26°C° 0 mm 2 mps 752 mmHg 39%
    05:00 +26°C° 0 mm 2 mps 752 mmHg 39%
    06:00 +26°C° 0 mm 2 mps 752 mmHg 40%
    07:00 +28°C° 0 mm 3 mps 752 mmHg 35%
    08:00 +30°C° 0 mm 3 mps 752 mmHg 31%
    09:00 +33°C° 0 mm 4 mps 752 mmHg 25%
    10:00 +35°C° 0 mm 4 mps 752 mmHg 23%
    11:00 +36°C° 0 mm 4 mps 752 mmHg 21%
    12:00 +37°C° 0 mm 4 mps 752 mmHg 19%
    13:00 +37°C° 0 mm 5 mps 752 mmHg 19%
    14:00 +39°C° 0 mm 6 mps 751 mmHg 18%
    15:00 +39°C° 0 mm 6 mps 751 mmHg 18%
    16:00 +38°C° 0 mm 6 mps 751 mmHg 19%
    17:00 +36°C° 0 mm 6 mps 751 mmHg 21%
    18:00 +35°C° 0 mm 6 mps 752 mmHg 22%
    19:00 +34°C° 0 mm 6 mps 752 mmHg 25%
    20:00 +33°C° 0 mm 5 mps 752 mmHg 29%
    21:00 +30°C° 0 mm 5 mps 753 mmHg 32%
    22:00 +30°C° 0 mm 4 mps 753 mmHg 35%
    23:00 +29°C° 0 mm 3 mps 753 mmHg 37%

    Tomorrow, 21 June, Friday

    Time Temperature Precipitation Wind Pressure Humidity
    00:00 +28°C° 0 mm 2 mps 753 mmHg 40%
    01:00 +28°C° 0 mm 2 mps 753 mmHg 41%
    02:00 +28°C° 0 mm 2 mps 753 mmHg 42%
    03:00 +27°C° 0 mm 3 mps 753 mmHg 42%
    04:00 +27°C° 0 mm 3 mps 753 mmHg 45%
    05:00 +27°C° 0 mm 4 mps 753 mmHg 47%
    06:00 +27°C° 0 mm 4 mps 753 mmHg 49%
    07:00 +28°C° 0 mm 4 mps 754 mmHg 48%
    08:00 +29°C° 0 mm 4 mps 754 mmHg 48%
    09:00 +29°C° 0 mm 3 mps 755 mmHg 47%
    10:00 +30°C° 0 mm 3 mps 755 mmHg 45%
    11:00 +30°C° 0 mm 3 mps 755 mmHg 42%
    12:00 +31°C° 0 mm 2 mps 755 mmHg 40%
    13:00 +33°C° 0 mm 3 mps 755 mmHg 37%
    14:00 +33°C° 0 mm 4 mps 755 mmHg 35%
    15:00 +34°C° 0 mm 5 mps 755 mmHg 33%
    16:00 +33°C° 0 mm 5 mps 755 mmHg 33%
    17:00 +32°C° 0 mm 4 mps 755 mmHg 33%
    18:00 +32°C° 0 mm 4 mps 755 mmHg 33%
    19:00 +30°C° 0 mm 4 mps 755 mmHg 35%
    20:00 +29°C° 0 mm 3 mps 755 mmHg 37%
    21:00 +29°C° 0 mm 2 mps 755 mmHg 39%
    22:00 +28°C° 0 mm 2 mps 755 mmHg 42%
    23:00 +27°C° 0 mm 2 mps 755 mmHg 46%

    Day after tomorrow, 22 June, Saturday

    Time Temperature Precipitation Wind Pressure Humidity
    00:00 +26°C° 0 mm 1 mps 755 mmHg 50%
    01:00 +25°C° 0 mm 1 mps 755 mmHg 52%
    02:00 +25°C° 0 mm 1 mps 755 mmHg 54%
    03:00 +24°C° 0 mm 1 mps 755 mmHg 56%
    04:00 +25°C° 0 mm 1 mps 755 mmHg 53%
    05:00 +26°C° 0 mm 1 mps 755 mmHg 51%
    06:00 +27°C° 0 mm 1 mps 755 mmHg 48%
    07:00 +28°C° 0 mm 2 mps 755 mmHg 43%
    08:00 +30°C° 0 mm 2 mps 755 mmHg 38%
    09:00 +32°C° 0 mm 2 mps 755 mmHg 33%
    10:00 +34°C° 0 mm 3 mps 755 mmHg 29%
    11:00 +36°C° 0 mm 4 mps 755 mmHg 26%
    12:00 +37°C° 0 mm 5 mps 754 mmHg 22%
    13:00 +39°C° 0 mm 5 mps 754 mmHg 22%
    14:00 +39°C° 0 mm 6 mps 754 mmHg 23%
    15:00 +39°C° 0 mm 7 mps 754 mmHg 23%
    16:00 +38°C° 0 mm 7 mps 754 mmHg 25%
    17:00 +36°C° 0 mm 7 mps 754 mmHg 27%
    18:00 +35°C° 0 mm 7 mps 754 mmHg 29%
    19:00 +34°C° 0 mm 7 mps 754 mmHg 36%
    20:00 +32°C° 0 mm 6 mps 754 mmHg 42%
    21:00 +30°C° 0 mm 5 mps 755 mmHg 48%
    22:00 +29°C° 0 mm 4 mps 755 mmHg 54%
    23:00 +28°C° 0 mm 3 mps 754 mmHg 59%

    23 June, Sunday

    Time Temperature Precipitation Wind Pressure Humidity
    00:00 +27°C° 0 mm 2 mps 754 mmHg 65%
    01:00 +27°C° 0 mm 2 mps 754 mmHg 68%
    02:00 +26°C° 0 mm 2 mps 754 mmHg 70%
    03:00 +26°C° 0 mm 1 mps 754 mmHg 73%
    04:00 +26°C° 0 mm 2 mps 754 mmHg 69%
    05:00 +27°C° 0 mm 2 mps 754 mmHg 66%
    06:00 +27°C° 0 mm 2 mps 754 mmHg 63%
    07:00 +29°C° 0 mm 2 mps 754 mmHg 56%
    08:00 +31°C° 0 mm 2 mps 754 mmHg 48%
    09:00 +32°C° 0 mm 2 mps 754 mmHg 41%
    10:00 +35°C° 0 mm 2 mps 754 mmHg 36%
    11:00 +36°C° 0 mm 2 mps 754 mmHg 30%
    12:00 +38°C° 0 mm 2 mps 754 mmHg 25%
    13:00 +39°C° 0 mm 3 mps 753 mmHg 24%
    14:00 +39°C° 0 mm 3 mps 753 mmHg 22%
    15:00 +40°C° 0 mm 3 mps 753 mmHg 21%
    16:00 +41°C° 0 mm 4 mps 753 mmHg 21%
    17:00 +40°C° 0 mm 4 mps 753 mmHg 22%
    18:00 +40°C° 0 mm 5 mps 753 mmHg 23%
    19:00 +37°C° 0 mm 5 mps 753 mmHg 25%
    20:00 +35°C° 0 mm 4 mps 754 mmHg 28%
    21:00 +33°C° 0 mm 4 mps 754 mmHg 31%
    22:00 +31°C° 0 mm 3 mps 754 mmHg 34%
    23:00 +31°C° 0 mm 2 mps 753 mmHg 37%

    24 June, Monday

    Time Temperature Precipitation Wind Pressure Humidity
    00:00 +30°C° 0 mm 1 mps 753 mmHg 40%
    01:00 +29°C° 0 mm 1 mps 753 mmHg 43%
    02:00 +28°C° 0 mm 1 mps 753 mmHg 45%
    03:00 +25°C° 0 mm 0 mps 753 mmHg 48%
    04:00 +28°C° 0 mm 1 mps 753 mmHg 47%
    05:00 +29°C° 0 mm 1 mps 753 mmHg 45%
    06:00 +29°C° 0 mm 1 mps 753 mmHg 44%
    07:00 +31°C° 0 mm 1 mps 753 mmHg 40%
    08:00 +32°C° 0 mm 1 mps 753 mmHg 35%
    09:00 +34°C° 0 mm 1 mps 753 mmHg 31%
    10:00 +35°C° 0 mm 1 mps 753 mmHg 28%
    11:00 +36°C° 0 mm 1 mps 753 mmHg 24%
    12:00 +39°C° 0 mm 2 mps 753 mmHg 21%
    13:00 +39°C° 0 mm 1 mps 753 mmHg 20%
    14:00 +40°C° 0 mm 1 mps 753 mmHg 20%
    15:00 +41°C° 0 mm 1 mps 753 mmHg 19%
    16:00 +40°C° 0 mm 2 mps 753 mmHg 20%
    17:00 +40°C° 0 mm 3 mps 753 mmHg 22%
    18:00 +40°C° 0 mm 4 mps 753 mmHg 24%
    19:00 +38°C° 0 mm 4 mps 753 mmHg 28%
    20:00 +36°C° 0 mm 4 mps 753 mmHg 32%
    21:00 +35°C° 0 mm 4 mps 753 mmHg 36%
    22:00 +33°C° 0 mm 5 mps 753 mmHg 40%
    23:00 +32°C° 0 mm 7 mps 753 mmHg 44%

    25 June, Tuesday

    Time Temperature Precipitation Wind Pressure Humidity
    00:00 +31°C° 0 mm 8 mps 753 mmHg 48%
    01:00 +29°C° 0.1 mm 8 mps 753 mmHg 51%
    02:00 +28°C° 0.1 mm 8 mps 753 mmHg 53%
    03:00 +28°C° 0.1 mm 7 mps 753 mmHg 56%
    04:00 +28°C° 0.1 mm 7 mps 754 mmHg 56%
    05:00 +27°C° 0.1 mm 7 mps 754 mmHg 56%
    06:00 +27°C° 0.1 mm 7 mps 754 mmHg 56%
    07:00 +29°C° 0.2 mm 7 mps 754 mmHg 52%
    08:00 +30°C° 0.2 mm 7 mps 754 mmHg 49%
    09:00 +33°C° 0.2 mm 6 mps 754 mmHg 45%
    10:00 +34°C° 0 mm 6 mps 754 mmHg 40%
    11:00 +36°C° 0 mm 6 mps 754 mmHg 36%
    12:00 +39°C° 0 mm 6 mps 754 mmHg 31%
    13:00 +39°C° 0 mm 6 mps 754 mmHg 29%
    14:00 +40°C° 0 mm 6 mps 754 mmHg 28%
    15:00 +40°C° 0 mm 6 mps 753 mmHg 26%
    16:00 +40°C° 0 mm 6 mps 754 mmHg 25%
    17:00 +40°C° 0 mm 5 mps 754 mmHg 24%
    18:00 +39°C° 0 mm 5 mps 754 mmHg 23%
    19:00 +38°C° 0 mm 6 mps 754 mmHg 26%
    20:00 +35°C° 0 mm 6 mps 754 mmHg 29%
    21:00 +34°C° 0 mm 7 mps 755 mmHg 31%
    22:00 +33°C° 0 mm 6 mps 755 mmHg 34%
    23:00 +32°C° 0 mm 6 mps 755 mmHg 36%
    Show more